Location: Carite
(10.3909°N, 67.0102°W)
Time: 01:53:16
(UTC+00:00)

Meteor 2-21 Rocket - Pass Details

Date: 08 September 2024
Orbit: 935 x 968 km, 82.5° (Epoch: 06 October)

Event Time Altitude Azimuth Distance (km) Brightness Sun altitude
Rises 22:55:22 0° 1° (N) 3,615 7.6 -6.4°
Reaches altitude 10° 22:57:54 10° 5° (N) 2,665 6.8 -7.0°
Maximum altitude 23:03:55 64° 86° (E) 1,033 4.4 -8.5°
Drops below altitude 10° 23:09:54 10° 167° (SSE) 2,646 6.6 -9.9°
Sets 23:12:23 0° 170° (S) 3,587 7.3 -10.5°
